Regional Weather Roundup
Issued by NWS

Home | Current Version | Previous Version | Text Only | Print | Product List | Glossary On
Versions: 1 2 3 4 5 6 7 8 9 10 11 12 13 14 15 16 17 18 19 20 21 22 23 24 25 26 27 28 29 30 31 32 33 34 35 36 37 38 39 40 41 42 43 44 45 46 47 48 49 50
000
ASUS43 KMKX 290600
RWRWI

WISCONSIN REGIONAL WEATHER ROUNDUP
NATIONAL WEATHER SERVICE MILWAUKEE/SULLIVAN WI
100 AM CDT WED MAR 29 2017

NOTE: "FAIR" INDICATES FEW OR NO CLOUDS BELOW 12,000 FEET WITH NO
SIGNIFICANT WEATHER AND/OR OBSTRUCTIONS TO VISIBILITY.

WIZ001-002-006>008-014>016-023>028-290700-
NORTHWEST WISCONSIN

CITY           SKY/WX    TMP DP  RH WIND       PRES   REMARKS
SUPERIOR ARPT  CLEAR     35  32  88 NE12      30.29S WCI  27
ASHLAND        CLEAR     33  29  85 NE7       30.29R WCI  27
6HR MIN TEMP:  31; 6HR MAX TEMP:  35;

HAYWARD        CLEAR     30  24  78 N7        30.23F WCI  23
6HR MIN TEMP:  30; 6HR MAX TEMP:  59;

SIREN          CLEAR     32  27  83 CALM      30.22S
CUMBERLAND     CLEAR     34  27  75 CALM      30.21F
RICE LAKE      CLEAR     35  29  78 CALM      30.23S
CHETEK         CLEAR     33  29  86 CALM      30.22S
LADYSMITH      CLEAR     37  28  69 CALM      30.24S
EAU CLAIRE     NOT AVBL
MENOMONIE      CLOUDY    38  31  77 CALM      30.20F
NEW RICHMOND   CLOUDY    35  31  85 CALM      30.20F
OSCEOLA        CLOUDY    34  29  80 CALM      30.23S
$$

WIZ003>005-009-010-017-018-290700-
NORTH CENTRAL WISCONSIN

CITY           SKY/WX    TMP DP  RH WIND       PRES   REMARKS
MANITOWISH WTR CLEAR     27  27 100 CALM      30.25R
ARBOR VITAE    CLEAR     35  28  75 CALM      30.24S
WOODRUFF       CLEAR     35  28  75 CALM      30.24S
RHINELANDER    CLEAR     33  27  78 E3        30.25S
6HR MIN TEMP:  33; 6HR MAX TEMP:  57;

EAGLE RIVER    CLEAR     29  24  83 CALM      30.25S
LAND O LAKES   CLEAR     29  26  88 CALM      30.28R
PHILLIPS       CLEAR     32  26  79 CALM      30.23S
TOMAHAWK       CLEAR     28  24  85 CALM      30.25S
MEDFORD        CLEAR     34  31  89 E6        30.23S WCI  28
MERRILL        CLEAR     29  27  92 CALM      30.25S
$$

WIZ029-030-035-036-043>047-290700-
CENTRAL WISCONSIN

CITY           SKY/WX    TMP DP  RH WIND       PRES   REMARKS
WAUSAU         CLEAR     37  30  75 E8        30.23S WCI  31
6HR MIN TEMP:  36; 6HR MAX TEMP:  56;

MOSINEE        CLEAR     37  28  70 E7        30.25F WCI  32
MARSHFIELD     CLEAR     39  30  70 E6        30.21F WCI  35
6HR MIN TEMP:  39; 6HR MAX TEMP:  54;

STEVENS POINT  CLEAR     29  28  94 NE3       30.25S
WAUPACA        CLOUDY    34  31  89 N5        30.25F WCI  30
WAUTOMA        CLOUDY    30  27  88 CALM      30.23F
6HR MIN TEMP:  30; 6HR MAX TEMP:  53;

WISC RAPIDS    CLOUDY    35  29  78 CALM      30.23F
6HR MIN TEMP:  34; 6HR MAX TEMP:  56;

CAMP DOUGLAS   NOT AVBL
$$

WIZ011>013-019>022-031-037>040-048>050-290700-
NORTHEAST WISCONSIN

CITY           SKY/WX    TMP DP  RH WIND       PRES   REMARKS
ANTIGO         CLEAR     34  28  77 E5        30.26S WCI  30
SHAWANO        CLEAR     35  33  90 CALM      30.28R
OCONTO           N/A     29  29  99 CALM      30.27S
STURGEON BAY   CLEAR     32  31  96 N5        30.29R WCI  27
6HR MIN TEMP:  30; 6HR MAX TEMP:  38;

GREEN BAY      CLEAR     34  34 100 NE3       30.26F
6HR MIN TEMP:  34; 6HR MAX TEMP:  47;

MANITOWOC      NOT AVBL
APPLETON       CLEAR     36  32  87 N7        30.23F WCI  30
CLINTONVILLE   CLEAR     36  30  80 NE3       30.26S
OSHKOSH        CLOUDY    34  29  82 NE5       30.23S WCI  30
6HR MIN TEMP:  33; 6HR MAX TEMP:  49;

$$

WIZ032>034-041-042-053>061-290700-
SOUTHWEST WISCONSIN

CITY           SKY/WX    TMP DP  RH WIND       PRES   REMARKS
LA CROSSE      CLOUDY    45  35  68 SE5       30.20F
6HR MIN TEMP:  43; 6HR MAX TEMP:  59;

SPARTA         CLOUDY    33  32  95 CALM      30.22F
VIROQUA        CLOUDY    41  33  74 CALM      30.19F
BOSCOBEL       CLOUDY    39  36  89 E3        30.20S
6HR MIN TEMP:  37; 6HR MAX TEMP:  58;

PRAIRIE DU CHI CLOUDY    40  38  91 E3        30.18F
PLATTEVILLE    CLOUDY    42  40  93 E8        30.19S
$$

WIZ056-057-062-063-064-067-068-290700-
SOUTH CENTRAL WISCONSIN

CITY           SKY/WX    TMP DP  RH WIND       PRES   REMARKS
REEDSBURG      CLOUDY    41  32  70 CALM      30.21F
BARABOO/DELLS  CLOUDY    39  32  76 E6        30.21F WCI  35
LONE ROCK      NOT AVBL
MINERAL POINT  CLOUDY    45  39  81 E8        30.19F
MADISON        PTCLDY    38  34  85 MISG      30.22F
6HR MIN TEMP:  37; 6HR MAX TEMP:  52;

MIDDLETON      PTCLDY    41  38  88 E6        30.22F
WATERTOWN      FOG       34  34 100 E6        30.23F VSB 1   WCI  29
MONROE         CLOUDY    37  36  93 E9        30.20S WCI  31
JANESVILLE     MOCLDY    36  36 100 E7        30.22F FOG     WCI  30
$$

WIZ051-052-058>065-066-070>072-290700-
SOUTHEAST WISCONSIN

CITY           SKY/WX    TMP DP  RH WIND       PRES   REMARKS
MILWAUKEE      FOG       34  33  96 W5        30.23F VSB 1/4 WCI  30
6HR MIN TEMP:  34; 6HR MAX TEMP:  36; 6HR PCP: TRACE;

WAUKESHA       FOG       32  32 100 CALM      30.24F VSB 1/4
MILWAUKEE/TIMM FOG       32  32 100 NW3       30.25F VSB 1/4
RACINE         FOG       32  32 100 NW3       30.25F VSB 1/2
6HR MIN TEMP:  32; 6HR MAX TEMP:  35;

KENOSHA        FOG       33  32  96 N5        30.23F VSB 1/4 WCI  29
6HR MIN TEMP:  33; 6HR MAX TEMP:  38;

FOND DU LAC    PTCLDY    36  31  82 S3        30.22F
6HR MIN TEMP:  34; 6HR MAX TEMP:  50;

SHEBOYGAN      CLOUDY    30  29  96 CALM      30.24S
6HR MIN TEMP:  30; 6HR MAX TEMP:  35;

WEST BEND      FOG       32  32 100 CALM      30.24F VSB 1/4
JUNEAU         CLEAR     35  33  92 CALM      30.24F
$$

LSZ147-162-290700-
LAKE SUPERIOR

STATION/POSITION TIME  TEMP    WIND        PRES    WAVE
                       AIR SEA DIR/SP/G            HT/PER
                 (UTC) (F)     (DEG/KT/KT) (MB)    (FT/S)
DEVILS ISLAND    0500   36      60/ 20/ 22 1026.7S
PORT WING        0530   35      40/  8/ 11 1025.7S
SAXON HARBOR     0540   29     190/  2/  4 1025.1R
$$

LMZ867-665-643>646-290700-
LAKE MICHIGAN

STATION/POSITION TIME  TEMP    WIND        PRES    WAVE
                       AIR SEA DIR/SP/G            HT/PER
                 (UTC) (F)     (DEG/KT/KT) (MB)    (FT/S)
CHAMBERS ISLAND  0540   31        CALM     1024.7S
NORTHPORT PIER   0540   35     320/  6/  8 1025.4S
SISTER BAY       0351   31        CALM       N/A
KEWAUNEE LAKESHO 0530   31     310/  2/  5 1024.1R
SHEBOYGAN LAKESH 0500   33     240/  3/  3 1024.6F
PORT WASHINGTON  0540   33     290/  4/  5 1025.1F
MILWAUKEE LAKESH 0520   33     290/  4/  4   N/A
KENOSHA   LAKESH 0500   34      CALM  /  6 1024.0
$$

TC  - TEMPERATURE IN CELSIUS
VSB - VISIBILITY IN STATUTE MILES
WCI - WIND CHILL INDEX
HX  - HEAT INDEX





USA.gov is the U.S. government's official web portal to all federal, state and local government web resources and services.